Flag for Western Sahara Weather past 2 weeks in Smara, Western Sahara

Now
75 °F

Mild.


Feels Like: 77 °F
Forecast: N/A
Wind: 9 mph from North

Location: Laayoune/Hassan Isl

Current Time: Sep 19, 2014 at 9:37:23 PM

Latest Report: Sep 19, 2014 at 9:00 PM


Visibility: N/A

Pressure: 29.98 "Hg

Humidity: 65%

Dew point: 63 °F

Location of SmaraLocation

Historic Weather in Smara — Graph

°F

Smara temperature yesterday

Maximum temperature yesterday: 84 °F (at 3:00 PM)
Minimum temperature yesterday: 68 °F (at 5:00 AM)
Average temperature yesterday: 75 °F

Past Weeks' High & Low Weather Summary

 TemperatureHumidityPressure
High95 °F (Sep 15, 4:00 PM)100% (Sep 8, 5:44 AM)30.09 "Hg (Sep 8, 5:44 AM)
Low68 °F (Sep 9, 6:00 AM)28% (Sep 15, 4:00 PM)29.86 "Hg (Sep 15, 5:00 PM)
Average77 °F70%29.98 "Hg
* Reported Sep 4 8:00 PM — Sep 19 8:00 PM, Smara, Weather by CustomWeather, © 2014

Note: Actual official high and low records may vary slightly from our data, if they occured in-between our weather recording intervals... More about our weather records

Advertising

Smara weather history for previous 24 hours

 ConditionsComfort  
Time TempWeatherWind HumidityBarometerVisibility
8:00 PM
Sep 19
77 °FSunny.12 mph54%29.95 "Hg10 mi
7:00 PM79 °FSunny.14 mph58%29.95 "Hg10 mi
6:00 PM81 °FWarm.15 mph48%29.95 "HgN/A
5:00 PM81 °FPartly sunny.15 mph51%29.92 "HgN/A
4:00 PM82 °FScattered clouds.12 mph45%29.92 "HgN/A
3:00 PM82 °FBroken clouds.9 mph48%29.95 "HgN/A
2:00 PM82 °FBroken clouds.6 mph42%29.95 "HgN/A
1:00 PM82 °FPassing clouds.7 mph45%30.01 "HgN/A
12:00 PM79 °FScattered clouds.7 mph54%29.98 "HgN/A
11:00 AM77 °FWarm.10 mph61%29.98 "HgN/A
10:00 AM73 °FPartly sunny.8 mph78%29.95 "Hg5 mi
9:00 AM72 °FMild.7 mph83%29.95 "HgN/A
8:00 AM68 °FPassing clouds.6 mph88%29.92 "Hg5 mi
7:00 AM70 °FClear.6 mph88%29.89 "Hg10 mi
6:00 AM68 °FMild.10 mph94%29.92 "HgN/A
5:00 AM70 °FMild.8 mph83%29.92 "HgN/A
4:00 AM70 °FClear.6 mph83%29.89 "Hg10 mi
3:00 AM72 °FClear.6 mph78%29.92 "Hg10 mi
2:00 AM72 °FClear.7 mph78%29.95 "Hg10 mi
1:00 AM72 °FMild.8 mph78%29.98 "HgN/A
12:00 AM73 °FClear.8 mph74%29.98 "Hg10 mi
11:00 PM
Sep 18
73 °FClear.10 mph74%29.98 "Hg10 mi
10:00 PM75 °FClear.10 mph69%29.98 "Hg10 mi
9:00 PM75 °FSunny.10 mph69%29.95 "Hg10 mi
Weather by CustomWeather, © 2014

See weather overviewHow to use our weather pages